Location: Unspecified
(0.0000°N, 0.0000°E)
Time: 06:52:28
(UTC+00:00)

Vanguard 2 - Pass Details

Date: 20 September 2019
Orbit: 554 x 2937 km, 32.9° (Epoch: 14 October)

Event Time Altitude Azimuth Distance (km) Brightness Sun altitude
Rises 02:43:02 0° 269° (W) 6,666 - -47.6°
Reaches altitude 10° 02:49:28 10° 283° (WNW) 5,396 - -46.0°
Maximum altitude 02:59:51 21° 325° (NW) 3,871 - -43.4°
Exits shadow 03:04:22 17° 352° (N) 3,761 10.9 -42.3°
Drops below altitude 10° 03:07:50 10° 11° (N) 4,012 11.2 -41.4°
Sets 03:11:43 0° 27° (NNE) 4,601 11.8 -40.5°
